Simultaneous Nadir Overpasses (SNOs) Predictions

Prediction of SNOs between NOAA-19 and TERRA Satellite Orbit:

Table of predicted SNOs for the next 14.0 days since TLE Epoch: 8/4/2017
Index Date (NOAA-19) Time (NOAA-19) Lat,Lon (NOAA-19) SZA (NOAA-19 ) Date (TERRA) Time (TERRA) Lat,Lon (TERRA) SZA (TERRA ) Distance(km) Time Diff (sec)
1 08/05/2017 15:10:17 -75.76, 144.35 120.86 08/05/2017 15:10:23 -75.74, 144.36 120.88 3.25 6
2 08/07/2017 20:44:09 75.75,-119.01 59.77 08/07/2017 20:44:07 75.73,-119.08 59.74 2.80 2
3 08/07/2017 21:34:51 -75.12, 50.34 120.73 08/07/2017 21:33:46 -75.17, 46.96 120.88 96.34 65
4 08/10/2017 01:27:10 76.41, 167.93 60.95 08/10/2017 01:28:14 76.30, 171.57 61.02 96.55 64
5 08/10/2017 02:17:52 -75.77, -22.44 119.57 08/10/2017 02:17:52 -75.79, -22.36 119.55 2.84 0
6 08/12/2017 07:51:42 75.76, 74.19 61.09 08/12/2017 07:51:35 75.79, 74.19 61.11 2.55 7
7 08/14/2017 12:34:39 76.25, 1.78 62.18 08/14/2017 12:35:46 76.15, 4.24 62.21 66.19 67
8 08/14/2017 13:25:26 -75.79, 170.74 118.20 08/14/2017 13:25:21 -75.79, 170.77 118.20 1.19 5
9 08/16/2017 18:08:24 -76.29, 98.25 117.09 08/16/2017 18:09:31 -76.21, 100.97 117.03 72.50 67
10 08/16/2017 18:59:16 75.79, -92.66 62.51 08/16/2017 18:59:05 75.79, -92.67 62.51 0.56 11




NCC Satellite Simultaneous Nadir Overpasses (SNOs) Prediction Service
